F/V J. Louis Vincent — FQBL — position and weather

sailwx.info

Track history (hours):
 
Tides and Currents Weather Stations Pressure Air Temp Water Temp Dewpoint Dewpoint Depression Visibility Wind Speed Wind Dir Waves Ship Positions

F/V J. Louis Vincent

Last reported at 2014-Oct-31 07:21 UTC. Time now 2014-Oct-31 08:22 UTC.
Position N 42°55' E 004°25'.

Length 29 m.

Type: Fishing. MMSI: 227146600.

Date/timePositionNaut miles runAvg speedWind from/ knotsBaromVisibWave heightAir tempDewpointWater temp
2014-Oct-31 07:21N 42°55' E 004°25'43 2.7
2014-Oct-30 15:32N 43°24' E 003°42'35 8.4
2014-Oct-30 11:18N 42°55' E 004°10'3 4.5
2014-Oct-30 10:33N 42°54' E 004°14'4 4.3
2014-Oct-30 09:32N 42°50' E 004°17'4 3.2
2014-Oct-30 08:26N 42°47' E 004°16'42 2.5
2014-Oct-29 15:30N 43°21' E 003°44'1312.1
2014-Oct-29 14:25N 43°09' E 003°50'4 4.7
2014-Oct-29 13:33N 43°06' E 003°53'5 4.5
2014-Oct-29 12:32N 43°02' E 003°57'5 4.5
2014-Oct-29 11:31N 42°59' E 004°02'5 3.9
2014-Oct-29 10:11N 42°55' E 004°06'3 4.8
2014-Oct-29 09:31N 42°54' E 004°10'4 4.4
2014-Oct-29 08:31N 42°53' E 004°16'7 2.4
2014-Oct-29 05:33N 42°59' E 004°11'33 2.6
2014-Oct-28 17:14N 43°24' E 003°42'6 5.2
2014-Oct-28 16:08N 43°20' E 003°48'3 4.2
2014-Oct-28 15:28N 43°17' E 003°48'27 3.4
2014-Oct-28 07:25N 42°58' E 004°14'5 4.5
2014-Oct-28 06:18N 42°59' E 004°07'31 2.2
2014-Oct-27 16:26N 43°24' E 003°42'0 0.4
2014-Oct-27 15:28N 43°24' E 003°42'29 3.5
2014-Oct-27 07:13N 42°60' E 004°04'  
2014-Oct-24 13:11N 43°13' E 003°47'2 3.8
2014-Oct-24 12:33N 43°11' E 003°47'6 4.4
2014-Oct-24 11:14N 43°05' E 003°49'4 3.3
2014-Oct-24 10:04N 43°01' E 003°52'3 4.5
2014-Oct-24 09:20N 43°00' E 003°56'4 4.6
2014-Oct-24 08:26N 42°59' E 004°02'29 1.7
2014-Oct-23 15:06N 43°24' E 003°42'0 0.4
2014-Oct-23 14:08N 43°24' E 003°42'1 0.9
2014-Oct-23 13:33N 43°23' E 003°42'8 7.0
2014-Oct-23 12:24N 43°16' E 003°47'4 4.3
2014-Oct-23 11:33N 43°14' E 003°50'4 4.5
2014-Oct-23 10:33N 43°11' E 003°55'4 3.2
2014-Oct-23 09:23N 43°10' E 004°00'9 4.8
2014-Oct-23 07:30N 43°07' E 004°12'28 1.8
2014-Oct-22 16:27N 43°24' E 003°42'0 0.4
2014-Oct-22 15:30N 43°24' E 003°42'8 4.0
2014-Oct-22 13:27N 43°17' E 003°47'4 4.3
2014-Oct-22 12:33N 43°15' E 003°52'6 4.5
2014-Oct-22 11:10N 43°13' E 004°00'2 1.6
2014-Oct-22 10:08N 43°14' E 004°02'3 4.0
2014-Oct-22 09:26N 43°13' E 004°06'5 4.7
2014-Oct-22 08:25N 43°11' E 004°12'4 4.3
2014-Oct-22 07:33N 43°09' E 004°16'1 1.2
2014-Oct-22 06:25N 43°08' E 004°17'6 4.4
2014-Oct-22 05:05N 43°11' E 004°10'24 1.9
2014-Oct-21 16:27N 43°24' E 003°42'1311.4
2014-Oct-21 15:18N 43°15' E 003°55'2 3.0
2014-Oct-21 14:30N 43°15' E 003°58'5 4.9
2014-Oct-21 13:26N 43°13' E 004°05'1 1.1
2014-Oct-21 12:13N 43°14' E 004°04'15 5.4
2014-Oct-21 09:23N 43°21' E 003°45'  
Track history (hours):
 
Tides and Currents Weather Stations Pressure Air Temp Water Temp Dewpoint Dewpoint Depression Visibility Wind Speed Wind Dir Waves Ship Positions

F/V J. Louis Vincent

Last reported at 2014-Oct-31 07:21 UTC. Time now 2014-Oct-31 08:22 UTC.
Position N 42°55' E 004°25'.

Length 29 m.

Type: Fishing. MMSI: 227146600.

Date/timePositionNaut miles runAvg speedWind from/ knotsBaromVisibWave heightAir tempDewpointWater temp
2014-Oct-31 07:21N 42°55' E 004°25'43 2.7
2014-Oct-30 15:32N 43°24' E 003°42'35 8.4
2014-Oct-30 11:18N 42°55' E 004°10'3 4.5
2014-Oct-30 10:33N 42°54' E 004°14'4 4.3
2014-Oct-30 09:32N 42°50' E 004°17'4 3.2
2014-Oct-30 08:26N 42°47' E 004°16'42 2.5
2014-Oct-29 15:30N 43°21' E 003°44'1312.1
2014-Oct-29 14:25N 43°09' E 003°50'4 4.7
2014-Oct-29 13:33N 43°06' E 003°53'5 4.5
2014-Oct-29 12:32N 43°02' E 003°57'5 4.5
2014-Oct-29 11:31N 42°59' E 004°02'5 3.9
2014-Oct-29 10:11N 42°55' E 004°06'3 4.8
2014-Oct-29 09:31N 42°54' E 004°10'4 4.4
2014-Oct-29 08:31N 42°53' E 004°16'7 2.4
2014-Oct-29 05:33N 42°59' E 004°11'33 2.6
2014-Oct-28 17:14N 43°24' E 003°42'6 5.2
2014-Oct-28 16:08N 43°20' E 003°48'3 4.2
2014-Oct-28 15:28N 43°17' E 003°48'27 3.4
2014-Oct-28 07:25N 42°58' E 004°14'5 4.5
2014-Oct-28 06:18N 42°59' E 004°07'31 2.2
2014-Oct-27 16:26N 43°24' E 003°42'0 0.4
2014-Oct-27 15:28N 43°24' E 003°42'29 3.5
2014-Oct-27 07:13N 42°60' E 004°04'  
2014-Oct-24 13:11N 43°13' E 003°47'2 3.8
2014-Oct-24 12:33N 43°11' E 003°47'6 4.4
2014-Oct-24 11:14N 43°05' E 003°49'4 3.3
2014-Oct-24 10:04N 43°01' E 003°52'3 4.5
2014-Oct-24 09:20N 43°00' E 003°56'4 4.6
2014-Oct-24 08:26N 42°59' E 004°02'29 1.7
2014-Oct-23 15:06N 43°24' E 003°42'0 0.4
2014-Oct-23 14:08N 43°24' E 003°42'1 0.9
2014-Oct-23 13:33N 43°23' E 003°42'8 7.0
2014-Oct-23 12:24N 43°16' E 003°47'4 4.3
2014-Oct-23 11:33N 43°14' E 003°50'4 4.5
2014-Oct-23 10:33N 43°11' E 003°55'4 3.2
2014-Oct-23 09:23N 43°10' E 004°00'9 4.8
2014-Oct-23 07:30N 43°07' E 004°12'28 1.8
2014-Oct-22 16:27N 43°24' E 003°42'0 0.4
2014-Oct-22 15:30N 43°24' E 003°42'8 4.0
2014-Oct-22 13:27N 43°17' E 003°47'4 4.3
2014-Oct-22 12:33N 43°15' E 003°52'6 4.5
2014-Oct-22 11:10N 43°13' E 004°00'2 1.6
2014-Oct-22 10:08N 43°14' E 004°02'3 4.0
2014-Oct-22 09:26N 43°13' E 004°06'5 4.7
2014-Oct-22 08:25N 43°11' E 004°12'4 4.3
2014-Oct-22 07:33N 43°09' E 004°16'1 1.2
2014-Oct-22 06:25N 43°08' E 004°17'6 4.4
2014-Oct-22 05:05N 43°11' E 004°10'24 1.9
2014-Oct-21 16:27N 43°24' E 003°42'1311.4
2014-Oct-21 15:18N 43°15' E 003°55'2 3.0
2014-Oct-21 14:30N 43°15' E 003°58'5 4.9
2014-Oct-21 13:26N 43°13' E 004°05'1 1.1
2014-Oct-21 12:13N 43°14' E 004°04'15 5.4
2014-Oct-21 09:23N 43°21' E 003°45'  

Dump ship's entire track history